RH
93 97 97 96 97 98 96 97 94 96 87 88 89 88 86 88 85 88 91 90 94 94
94 94 93 94 95 97 94 84 94 96 88 88 88 88 89 90 89 91 92 89 94 93
94 95 92 94 95 95 94 95 96 95 89 88 88 88 88 91 88 90 90 89 93 91
94 93 93 95 95 97 96 95 95 95 90 90 90 91 90 90 89 90 90 88 94 91
95 94 95 96 95 94 96 92 95 96 89 86 88 90 91 92 91 93 92 91 90 93
96 96 98 97 95 92 96 94 94 95 92 90 87 89 89 90 90 92 91 92 92 94
98 97 98 97 94 87 84 89 91 94 92 92 89 84 86 84 90 91 90 90 86 91
98 97 94 93 87 82 86 88 88 83 83 77 76 80 86 87 90 89 90 87 78 81
97 94 95 94 88 88 86 93 95 92 88 93 78 73 73 83 89 83 84 90 82 74
94 97 97 93 93 95 96 96 97 96 94 93 94 71 76 82 94 95 96 91 87 76
94 98 97 95 96 97 97 97 98 97 95 95 88 68 73 78 95 96 95 95 92 90
94 96 95 94 95 97 97 97 98 98 96 96 95 67 70 84 93 96 94 90 85 91
86 87 91 92 95 97 97 98 95 95 97 86 95 66 66 85 83 95 93 91 90 68
86 88 89 89 88 90 90 87 92 91 96 94 91 88 69 69 91 94 91 93 95 86
Wind_Speed
5 3 3 3 3 3 3 4 6 6 7 7 8 8 8 6 8 11 10 12 10 8
4 4 4 4 3 3 4 5 6 6 6 7 8 9 8 7 9 9 10 11 10 8
4 4 4 3 4 4 4 4 5 6 7 7 7 9 9 7 9 10 9 9 12 10
4 4 4 4 3 3 3 4 6 6 7 6 8 9 8 9 10 12 12 14 13 13
4 4 4 3 3 4 4 4 4 5 6 7 8 8 9 10 10 12 14 14 15 14
4 4 3 4 4 4 2 3 4 5 6 7 8 8 9 9 10 10 11 13 15 15
5 5 3 3 4 3 3 4 5 4 4 5 6 9 9 10 9 10 10 11 13 15
4 5 4 4 4 5 6 5 5 6 6 6 8 8 9 9 9 10 10 11 12 13
6 5 4 4 5 6 7 5 5 5 5 6 7 16 18 12 9 11 11 11 12 11
6 5 4 5 5 6 5 3 4 4 5 5 4 15 16 16 7 7 7 10 10 11
6 6 4 5 5 4 4 3 2 3 5 5 5 13 15 15 6 6 7 6 9 9
8 7 6 6 5 3 4 3 2 2 5 5 5 13 12 9 6 6 8 8 8 7
10 10 8 6 5 3 3 3 2 4 3 9 5 10 12 8 4 6 5 7 8 22
10 10 9 8 6 5 5 4 3 5 4 5 6 4 11 13 4 4 5 6 6 7
Wind_Direction
105 104 82 55 30 6 356 346 347 342 341 344 352 350 359 5 351 346 342 339 321 319
114 100 83 58 41 14 5 356 353 335 348 360 357 356 359 358 352 348 340 347 333 333
117 106 93 78 48 34 9 360 344 347 359 8 4 5 360 359 359 355 349 345 343 348
128 108 81 73 54 31 4 7 359 358 2 5 16 9 8 6 8 360 353 354 353 358
122 109 95 85 64 51 19 12 350 1 13 13 26 14 17 11 7 5 0 357 359 5
122 125 118 78 55 47 13 19 4 12 19 19 34 19 22 17 10 12 3 0 5 5
147 140 110 88 72 55 38 36 11 10 13 6 42 36 29 26 14 19 9 6 15 12
149 130 115 98 82 78 57 39 15 43 29 34 49 47 36 31 22 27 20 19 24 28
124 111 109 100 88 74 67 42 32 35 40 20 56 58 53 50 38 32 33 26 26 31
123 112 105 96 90 81 63 33 31 24 34 29 16 61 60 49 29 31 21 37 30 36
133 126 117 104 93 76 70 61 34 21 28 32 46 61 63 53 17 27 23 17 35 34
152 143 143 131 123 98 93 56 43 17 43 38 357 67 66 53 31 21 30 23 63 43
160 162 158 150 144 124 119 115 84 61 24 44 12 75 71 64 61 45 35 29 25 54
166 164 163 157 150 144 134 117 96 78 29 30 14 10 91 82 64 55 52 36 23 46